Location: Austin
(30.3000°N, 97.7500°W)
Time: 23:43:04
(UTC-05:00)

Cosmos 2219 Rocket - Pass Details

Date: 08 April 2026
Orbit: 827 x 844 km, 71.0° (Epoch: 20 April)

Event Time Altitude Azimuth Distance (km) Brightness Sun altitude
Rises 21:44:36 0° 212° (SSW) 3,353 5.4 -23.6°
Reaches altitude 10° 21:47:06 10° 218° (SW) 2,422 4.7 -24.0°
Maximum altitude 21:52:27 49° 292° (WNW) 1,054 3.0 -25.1°
Drops below altitude 10° 21:57:51 10° 8° (N) 2,433 4.8 -26.1°
Sets 22:00:22 0° 13° (NNE) 3,370 5.5 -26.6°
